Lid_Strength_Index
2 2 2 2 2 2 2 2 2 2 2 2 2 2 2 1 2 2 7 5 4 -1 -0 5 5 4 5 5 4 4 9 11 10 10 9 6 7 5 4 5 5 4 4 4 2
2 2 2 2 2 2 2 2 2 2 2 2 2 2 1 1 3 5 1 -4 -3 -2 5 6 6 5 7 6 5 6 10 9 7 7 7 6 6 6 6 6 6 5 3 3 2
2 2 2 2 2 2 2 2 2 2 2 2 2 2 1 1 5 6 -3 -3 -3 -0 6 5 5 6 7 7 6 6 9 6 6 6 5 6 6 5 7 8 6 6 5 3 3
2 2 2 2 2 2 2 2 2 2 2 2 2 2 1 2 9 4 -2 -2 -3 6 6 5 6 6 7 8 6 7 6 6 6 5 6 7 5 7 6 6 4 4 3 3 4
2 2 2 2 2 2 2 2 2 2 2 2 2 1 3 6 5 1 -2 -2 5 6 6 5 7 6 8 6 6 7 6 6 5 5 5 5 7 7 6 4 3 3 3 4 4
2 2 2 2 2 2 2 2 2 3 2 2 2 1 4 8 3 -0 2 3 5 6 6 6 6 5 7 6 7 6 6 6 6 6 5 7 7 6 6 4 4 4 5 4 4
3 2 2 3 2 2 3 3 3 3 2 2 1 1 5 7 2 2 4 6 6 6 6 5 5 7 6 6 5 6 8 7 7 6 7 6 8 8 5 5 6 5 5 5 4
2 2 2 2 2 3 3 4 3 3 2 1 1 3 7 3 2 3 5 5 5 5 5 4 5 6 7 5 6 8 8 11 8 6 6 7 11 7 6 6 7 6 5 5 4
3 2 3 3 3 3 4 4 3 2 1 1 4 5 6 0 3 3 4 5 6 5 5 3 5 7 7 8 10 9 13 11 9 7 7 8 9 7 6 6 7 6 6 5 5
3 3 3 3 3 4 5 4 3 3 1 1 1 7 6 4 5 4 4 5 6 6 5 5 7 9 9 10 14 11 11 10 11 8 8 9 10 8 6 7 7 6 6 6 5
3 3 3 4 4 5 6 6 7 7 5 7 9 5 5 4 3 5 6 5 6 7 10 7 10 11 10 9 8 9 9 10 8 7 9 10 10 8 6 7 7 7 7 6 5
3 4 4 4 5 5 6 9 7 5 9 6 4 5 4 5 6 5 5 7 8 9 9 9 11 9 7 7 8 9 10 10 8 7 9 10 10 8 7 7 6 7 7 6 5
4 4 4 5 5 6 7 6 4 6 10 7 5 5 5 5 6 7 5 6 9 10 10 10 9 6 7 8 9 10 11 10 10 8 8 10 11 10 8 7 6 6 6 5 6
4 4 5 6 7 7 7 6 6 6 12 10 9 6 5 5 8 4 4 5 8 9 9 9 7 7 8 8 9 13 8 8 9 10 13 10 15 13 10 9 7 7 7 6 5
4 4 5 6 8 7 6 4 4 7 16 7 9 5 6 7 8 7 5 6 7 8 8 9 9 8 9 9 7 9 7 8 8 10 11 11 13 12 10 10 9 8 7 6 5
4 5 6 7 8 6 5 5 7 12 15 8 8 8 9 9 8 7 6 5 5 7 8 8 6 7 8 7 7 7 8 9 11 12 15 13 13 12 12 10 9 7 6 6 5
5 6 6 6 8 5 6 8 13 14 8 10 10 10 10 10 9 9 9 10 9 12 13 10 9 7 6 9 7 9 13 15 15 16 16 12 14 13 9 8 8 7 7 6 5
6 7 7 6 7 6 7 10 15 10 10 9 10 11 11 10 10 9 11 11 9 11 12 13 14 9 6 8 10 9 12 15 18 17 15 11 16 13 8 7 6 6 6 5 5
6 7 6 5 5 6 9 14 12 10 9 9 10 12 13 11 10 10 11 11 9 10 12 14 14 9 8 7 8 10 13 11 14 14 15 15 13 10 8 8 8 7 6 6 6
7 7 6 3 4 7 10 13 10 8 8 9 12 11 14 12 12 12 12 9 9 8 10 11 13 10 9 9 8 8 9 13 15 17 21 17 16 15 11 10 8 8 7 7 6
7 8 4 3 6 9 13 12 9 8 8 10 11 11 12 11 11 13 11 9 8 8 9 11 12 11 11 12 11 11 12 13 14 14 18 20 16 10 10 9 9 8 7 7 6
8 9 5 5 10 11 12 10 8 9 8 9 9 10 10 11 11 11 11 9 7 8 10 10 13 14 12 10 9 9 11 13 15 16 15 15 15 9 8 8 8 8 7 6 5
9 9 4 7 12 12 10 8 8 9 9 9 9 10 9 11 12 10 9 7 7 8 10 10 14 14 13 12 11 12 11 13 13 14 14 15 15 9 8 8 7 8 7 6 6
8 11 7 8 10 10 11 10 9 7 7 8 8 9 10 11 11 10 9 6 7 8 5 7 14 13 14 14 11 11 10 11 13 15 13 13 13 11 10 9 8 8 7 6 6
8 8 7 11 9 9 9 9 9 9 7 8 9 9 10 13 11 11 9 8 7 6 9 11 13 13 12 11 10 10 9 9 12 13 12 12 11 9 9 9 8 7 6 7 6
8 9 8 9 9 10 10 10 9 8 8 9 9 7 9 12 11 11 10 10 11 8 9 12 13 12 13 10 10 10 9 9 10 10 11 10 11 7 7 7 7 7 7 7 6
6 5 8 10 10 10 10 8 8 7 7 6 7 8 9 8 7 7 8 8 9 9 10 13 13 14 15 11 10 12 11 10 10 10 10 11 10 8 8 8 7 7 7 6 6